FW3337 Montebello NY US current weather conditions

sailwx.info

Wind from 105 at 0 knots gusting 2

Air temperature 25.6° C
Dewpoint 20.1° C

Last reported at 2020-Aug-13 16:01 UTC.
Time now 2020-Aug-13 17:07 UTC

Location: N 41°08' W 074°07'.
View on Google Maps.

See reports from other nearby stations

  
Tides and Currents Weather Stations Pressure Air Temp Water Temp Dewpoint Dewpoint Depression Visibility Wind Speed Wind Dir Waves Ship Positions
date/time (UTC)wind fromknots sea level pressurealtimeterstation pressurevisibilityair tempwater tempwave heightnotes
2020-Aug-13 16:01 105 0 gusting 2 25.6
2020-Aug-13 15:46 105 25.6
2020-Aug-13 15:31 105 25.0
2020-Aug-13 15:15 105 25.0
2020-Aug-13 15:01 105 25.0
2020-Aug-13 14:45 105 25.0
2020-Aug-13 14:30 104 25.0
2020-Aug-13 14:15 104 25.0
2020-Aug-13 14:00 093 25.0
2020-Aug-13 13:45 052 25.0
2020-Aug-13 13:30 097 23.9
2020-Aug-13 13:15 102 0 gusting 3 22.8
2020-Aug-13 13:01 305 22.2
2020-Aug-13 12:46 305 22.2
2020-Aug-13 12:32 305 21.7
2020-Aug-13 12:17 305 21.1
2020-Aug-13 12:00 305 20.6
2020-Aug-13 11:46 305 20.6
2020-Aug-13 11:31 305 20.6
2020-Aug-13 11:16 305 20.6
2020-Aug-13 11:02 305 20.0
2020-Aug-13 10:47 305 20.0
2020-Aug-13 10:31 305 20.0
2020-Aug-13 10:16 305 20.0
2020-Aug-13 10:01 305 20.0
2020-Aug-13 09:46 305 20.0
2020-Aug-13 09:31 305 19.4
2020-Aug-13 09:16 305 19.4
2020-Aug-13 09:01 305 19.4
2020-Aug-13 08:45 305 19.4
2020-Aug-13 08:31 305 20.0
2020-Aug-13 08:15 305 20.6
2020-Aug-13 08:01 305 20.6
2020-Aug-13 07:46 305 21.1
2020-Aug-13 07:31 305 21.1
2020-Aug-13 07:16 305 21.7
2020-Aug-13 07:01 305 21.7
2020-Aug-13 06:45 305 21.7
2020-Aug-13 06:30 305 21.7
2020-Aug-13 06:16 305 21.7
2020-Aug-13 06:00 305 21.7
2020-Aug-13 05:46 305 21.7
2020-Aug-13 05:30 305 21.7
2020-Aug-13 05:15 305 22.2
2020-Aug-13 05:00 305 22.2
2020-Aug-13 04:45 305 22.2
2020-Aug-13 04:30 305 22.2
2020-Aug-13 04:15 305 22.2
2020-Aug-13 04:00 305 22.2
2020-Aug-13 03:45 305 22.8
2020-Aug-13 03:30 305 22.8
2020-Aug-13 03:15 305 22.8
2020-Aug-13 03:00 305 22.8
2020-Aug-13 02:45 305 23.3
2020-Aug-13 02:30 305 23.3
2020-Aug-13 02:15 305 23.3
2020-Aug-13 02:01 305 23.9
2020-Aug-13 01:47 305 23.9
2020-Aug-13 01:31 305 23.9
2020-Aug-13 01:16 305 24.4
2020-Aug-13 01:01 305 24.4
2020-Aug-13 00:46 305 25.0
2020-Aug-13 00:32 305 25.6
2020-Aug-13 00:16 305 25.6
2020-Aug-13 00:01 305 26.1
2020-Aug-12 23:48 305 26.7
2020-Aug-12 23:31 305 27.2
2020-Aug-12 23:16 305 27.8
2020-Aug-12 23:01 305 27.8
2020-Aug-12 22:48 305 0 gusting 3 28.3
2020-Aug-12 22:31 334 28.3
2020-Aug-12 22:16 016 28.9
2020-Aug-12 22:02 120 28.9
2020-Aug-12 21:46 060 29.4
2020-Aug-12 21:31 160 28.9
2020-Aug-12 21:17 203 28.9
2020-Aug-12 21:01 029 0 gusting 5 30.0
2020-Aug-12 20:45 273 31.1
2020-Aug-12 20:31 273 31.7
2020-Aug-12 20:16 279 32.2
2020-Aug-12 20:01 317 31.7
2020-Aug-12 19:46 329 31.7
2020-Aug-12 19:31 053 31.7
2020-Aug-12 19:16 081 30.6
2020-Aug-12 19:01 112 30.0
2020-Aug-12 18:45 112 30.6
2020-Aug-12 18:31 113 31.1
2020-Aug-12 18:16 113 0 gusting 1 31.7
2020-Aug-12 18:01 114 31.7
2020-Aug-12 17:46 311 31.1
2020-Aug-12 17:30 309 30.6
2020-Aug-12 17:16 309 31.1
2020-Aug-12 17:01 329 0 gusting 3 30.6
2020-Aug-12 16:45 339 31.1
2020-Aug-12 16:31 108 30.6
2020-Aug-12 16:15 066 30.6
2020-Aug-12 16:00 056 30.0
2020-Aug-12 15:46 098 0 gusting 3 29.4
2020-Aug-12 15:30 091 1 gusting 6 30.0
2020-Aug-12 15:15 092 29.4
2020-Aug-12 15:00 066 29.4
2020-Aug-12 14:45 106 0 gusting 3 29.4
2020-Aug-12 14:30 104 28.3
2020-Aug-12 14:15 068 28.3
2020-Aug-12 14:00 089 0 gusting 3 28.3
2020-Aug-12 13:45 074 0 gusting 5 27.8
2020-Aug-12 13:30 002 27.2
2020-Aug-12 13:16 001 26.7
2020-Aug-12 13:02 360 26.1
2020-Aug-12 12:46 358 25.6
2020-Aug-12 12:33 358 24.4
2020-Aug-12 12:16 358 23.3
2020-Aug-12 12:01 358 22.8
2020-Aug-12 11:46 358 22.8
2020-Aug-12 11:30 358 22.2
2020-Aug-12 11:16 358 21.7
2020-Aug-12 11:00 358 21.7
2020-Aug-12 10:46 358 21.7
2020-Aug-12 10:31 358 21.7
2020-Aug-12 10:15 358 21.7
2020-Aug-12 10:00 358 21.1
2020-Aug-12 09:45 358 21.1
2020-Aug-12 09:30 358 21.7
2020-Aug-12 09:16 358 21.7
2020-Aug-12 09:00 358 21.7
2020-Aug-12 08:45 358 21.7
2020-Aug-12 08:30 358 21.7
2020-Aug-12 08:15 358 22.2
2020-Aug-12 08:00 358 22.2
2020-Aug-12 07:45 358 22.2
2020-Aug-12 07:30 358 22.2
2020-Aug-12 07:16 358 22.2
2020-Aug-12 07:00 358 22.2
2020-Aug-12 06:46 358 22.2
2020-Aug-12 06:30 358 22.2
2020-Aug-12 06:15 358 22.2
2020-Aug-12 06:00 358 22.2
2020-Aug-12 05:45 358 22.2
2020-Aug-12 05:30 358 22.2
2020-Aug-12 05:15 358 22.2
2020-Aug-12 04:45 358 22.8
2020-Aug-12 04:33 358 22.8
2020-Aug-12 04:16 358 22.8
2020-Aug-12 03:16 358 23.3
2020-Aug-12 03:03 358 23.3
2020-Aug-12 02:46 358 23.3
2020-Aug-12 02:31 358 23.9
2020-Aug-12 02:16 358 23.9
2020-Aug-12 02:01 358 23.9
2020-Aug-12 01:46 358 24.4
2020-Aug-12 01:31 358 24.4
2020-Aug-12 01:17 358 25.0
2020-Aug-12 01:01 358 25.0
2020-Aug-12 00:46 358 25.6
2020-Aug-12 00:32 358 26.1
2020-Aug-12 00:16 358 26.7
2020-Aug-12 00:03 358 27.2
2020-Aug-11 23:46 358 27.8
2020-Aug-11 23:32 040 27.8
2020-Aug-11 23:16 072 28.3
2020-Aug-11 23:01 084 28.3
2020-Aug-11 22:46 343 28.3
2020-Aug-11 22:31 218 28.9
2020-Aug-11 22:17 135 28.9
2020-Aug-11 22:01 243 28.9
2020-Aug-11 21:46 307 28.9
2020-Aug-11 21:31 090 28.9
2020-Aug-11 21:15 257 28.9
2020-Aug-11 21:00 257 0 gusting 6 29.4
2020-Aug-11 20:45 242 0 gusting 7 30.0
2020-Aug-11 20:31 274 0 gusting 2 31.1
2020-Aug-11 20:16 150 31.1
2020-Aug-11 20:01 262 0 gusting 4 31.1
2020-Aug-11 19:46 224 2 gusting 5 31.7
2020-Aug-11 19:31 237 0 gusting 4 31.7
2020-Aug-11 19:16 082 0 gusting 4 31.7
2020-Aug-11 19:00 223 0 gusting 6 31.7
2020-Aug-11 18:46 254 0 gusting 3 32.2
2020-Aug-11 18:31 294 0 gusting 2 32.2
2020-Aug-11 18:16 243 31.7
2020-Aug-11 18:01 206 0 gusting 4 31.7
2020-Aug-11 17:45 241 1 gusting 6 31.1
2020-Aug-11 17:30 206 0 gusting 6 31.1
2020-Aug-11 17:16 222 31.1
2020-Aug-11 17:00 343 0 gusting 4 31.1